Skip Page Navigation
NASA JPL Caltech
NASA Logo - Jet Propulsion Laboratory + View the NASA Portal
+ Center for Near-Earth Object Studies
JPL Home Earth Solar System Stars & Galaxies Technology
JPL Solar System Dynamics
BODIES ORBITS EPHEMERIDES TOOLS PHYSICAL DATA DISCOVERY FAQ SITE MAP
JPL Small-Body Database Browser
Search: [ help ]  
46601 (1993 FV15)
Classification: Main-belt Asteroid          SPK-ID: 2046601
Ephemeris | Orbit Diagram | Orbital Elements | Mission Design | Physical Parameters | Discovery Circumstances | Close-Approach Data ]

[ show orbit diagram ]
Orbital Elements at Epoch 2459000.5 (2020-May-31.0) TDB
Reference: JPL 24 (heliocentric ecliptic J2000)
 Element Value Uncertainty (1-sigma)   Units 
e .02315339251896378 3.2853e-08  
a 2.481334685325512 1.21e-08 au
q 2.423883369385251 8.5952e-08 au
i 4.208030576832764 3.4724e-06 deg
node 104.0712196276449 5.1324e-05 deg
peri 131.7868284683053 0.00012513 deg
M 296.7942715158803 0.00011664 deg
tp 2459251.157317072349
(2021-Feb-05.65731707)
0.00046317 TDB
period 1427.665439671615
3.91
1.0443e-05
2.859e-08
d
yr
n .2521599178605917 1.8445e-09 deg/d
Q 2.538786001265773 1.2381e-08 au
  Orbit Determination Parameters
   # obs. used (total)      943  
   data-arc span      9904 days (27.12 yr)  
   first obs. used      1993-03-17  
   last obs. used      2020-04-28  
   planetary ephem.      DE431  
   SB-pert. ephem.      SB431-N16  
   condition code      0  
   norm. resid. RMS      .55263  
   source      ORB  
   producer      Otto Matic  
   solution date      2020-May-20 09:34:08  

Additional Information
 Earth MOID = 1.41304 au 
 Jupiter MOID = 2.43549 au 
 T_jup = 3.474 
[ hide covariance matrix ]
Orbital Elements at Epoch 2457223.5 (2015-Jul-20.0) TDB
Reference: JPL 24 (heliocentric ecliptic J2000)
 Element Value Uncertainty (1-sigma)   Units 
e .02437959577267309 3.264e-08  
q 2.420458802439669 8.5468e-08 au
tp 2457823.729313104096
(2017-Mar-11.22931310)
0.00043924 TDB
node 104.1239069806005 5.1311e-05 deg
peri 131.9669149081322 0.00012044 deg
i 4.208804137201465 3.4736e-06 deg
  Orbit Determination Parameters
   # obs. used (total)      943  
   data-arc span      9904 days (27.12 yr)  
   first obs. used      1993-03-17  
   last obs. used      2020-04-28  
   planetary ephem.      DE431  
   SB-pert. ephem.      SB431-N16  
   condition code      0  
   norm. resid. RMS      .55263  
   source      ORB  
   producer      Otto Matic  
   solution date      2020-May-20 09:34:08  

Additional Information
 Jupiter MOID = 2.43549 au 
 T_jup = 3.474 
Orbit Covariance (6×6)
  e q tp node peri i
e 1.065382089382577E-15 -2.765813234968651E-15 -5.6420683655323E-12 6.113167185615786E-15 -1.370066148287807E-12 1.439362152807802E-15
q -2.765813234968651E-15 7.304849291665043E-15 1.558746612210535E-11 -1.692793193319775E-14 3.778503803444132E-12 -3.629898730362789E-15
tp -5.6420683655323E-12 1.558746612210535E-11 1.929356801149347E-7 -2.453800342024941E-10 4.78724454104994E-8 -1.806507366169445E-11
node 6.113167185615786E-15 -1.692793193319775E-14 -2.453800342024941E-10 2.632830539150386E-9 -2.686065977049225E-9 3.970785342670752E-11
peri -1.370066148287807E-12 3.778503803444132E-12 4.78724454104994E-8 -2.686065977049225E-9 1.450499216088014E-8 -4.404651082349122E-11
i 1.439362152807802E-15 -3.629898730362789E-15 -1.806507366169445E-11 3.970785342670752E-11 -4.404651082349122E-11 1.206594137409803E-11

Ephemeris | Orbit Diagram | Orbital Elements | Mission Design | Physical Parameters | Discovery Circumstances | Close-Approach Data ]

Physical Parameter Table
Parameter Symbol Value Units Sigma Reference Notes
absolute magnitude H 15.6   n/a MPO417139  

46601 (1993 FV15)          Discovered 1993-Mar-17 by UESAC at La Silla
Reference: 20020921/Numbers.arcLast Updated: 2004-04-19

[ show close-approach data ]
Alternate Designations
 1993 FV15 = 2000 AJ210 
Ephemeris | Orbit Diagram | Orbital Elements | Mission Design | Physical Parameters | Discovery Circumstances | Close-Approach Data ]
ABOUT SSD CREDITS/AWARDS PRIVACY/COPYRIGHT GLOSSARY LINKS
FirstGov 2020-Aug-08 19:34 UT
(server date/time)  
NASA Home Page
Site Manager:   Ryan S. Park
Webmaster  Alan B. Chamberlin